Theta_e
338 337 335 334 333 332 331 330 329 328 327 326 325 324 324 323 321 320 318 317 316 315 312 310 310 310 310 310 310 310 310 310 310 309 308 308 308 307 307 306 306 305
337 336 335 334 333 331 330 330 329 328 327 326 325 324 323 323 321 319 318 317 315 314 311 310 309 309 309 309 308 308 308 308 308 307 307 307 307 306 305 305 304 304
337 335 334 333 332 331 330 329 328 327 327 326 325 324 323 322 320 319 317 316 314 312 310 309 309 309 308 308 306 306 306 306 306 306 305 305 305 305 305 304 303 303
337 335 334 333 332 331 330 329 328 327 326 326 324 324 323 321 319 318 316 316 313 311 309 309 309 308 307 306 305 306 306 306 306 304 304 304 304 305 305 304 303 301
336 335 333 332 332 331 330 329 328 327 326 325 324 323 322 320 319 317 316 314 312 310 309 309 308 307 306 306 305 306 306 306 306 304 303 304 304 304 304 303 302 303
336 335 333 332 331 330 330 329 328 327 326 325 323 322 321 319 318 317 315 313 311 309 309 309 308 307 307 306 305 305 305 305 305 304 303 303 304 304 305 305 305 305
336 334 333 332 331 330 329 328 327 327 326 324 323 321 320 319 318 316 314 313 310 309 309 308 308 307 307 306 305 306 306 305 304 303 303 304 305 305 306 306 306 305
335 334 333 332 330 329 328 328 327 326 325 324 322 321 320 318 317 316 314 313 310 309 308 308 308 307 306 306 305 306 306 305 304 303 304 305 305 305 305 304 305 304
335 334 333 331 330 329 328 327 327 325 324 324 322 320 318 318 317 316 314 312 311 309 308 308 308 307 306 307 306 306 306 306 305 303 304 305 305 304 304 304 304 303
335 334 332 331 330 329 328 327 326 325 324 323 322 320 318 317 316 315 314 312 310 309 308 308 307 307 307 308 306 306 307 306 305 304 304 305 304 304 304 304 304 304
335 333 332 330 329 328 328 327 326 325 324 323 321 319 318 317 316 315 313 312 311 309 308 308 307 307 308 307 306 306 307 306 305 305 305 304 304 304 304 304 304 305
334 333 331 330 329 327 327 326 325 324 323 322 320 319 318 316 316 314 313 312 311 309 309 308 307 308 308 307 306 306 307 306 306 305 304 304 304 304 304 304 304 305
333 332 331 329 328 327 326 325 324 323 322 321 320 318 317 316 315 314 312 311 310 309 309 308 307 308 308 306 306 307 306 306 306 305 305 304 304 304 305 304 305 305
332 331 330 328 327 326 325 324 322 321 320 320 319 317 316 316 315 313 312 311 310 309 309 308 307 308 307 306 307 307 306 306 306 306 305 304 304 305 304 304 305 304
331 330 328 327 326 325 324 322 321 320 319 319 318 316 316 315 314 313 312 311 310 309 309 308 308 307 307 307 307 306 306 306 306 306 305 304 304 304 304 304 304 304
330 328 327 326 325 324 323 321 320 319 319 318 316 316 315 315 314 312 311 310 310 309 309 308 307 307 307 306 305 305 306 306 306 305 305 304 305 304 304 304 304 304
328 327 326 325 324 323 322 321 320 318 318 317 316 315 315 314 313 312 311 310 310 309 309 308 307 307 305 304 305 306 306 306 305 305 305 305 305 304 304 304 304 304
327 326 325 324 323 322 322 321 319 318 317 316 315 315 315 314 313 312 311 310 309 309 308 307 307 305 303 304 306 306 306 306 306 305 305 305 305 304 304 304 304 304
327 326 324 323 322 322 321 320 319 317 316 315 315 315 314 313 312 312 311 310 309 309 308 307 306 304 303 305 306 305 306 306 306 306 306 305 305 305 304 304 304 305
326 325 324 323 322 321 320 320 318 316 315 315 315 314 313 312 312 311 311 310 309 308 308 307 306 304 304 306 305 305 306 306 306 306 306 305 305 306 305 305 305 305
325 324 323 322 321 321 320 319 318 316 315 314 314 314 313 312 311 311 310 309 309 308 308 307 306 305 306 305 305 306 306 306 306 306 306 306 306 306 306 306 305 305
324 323 322 321 321 320 320 319 317 315 314 314 314 313 312 311 311 310 310 309 308 308 307 306 306 306 306 305 305 306 306 306 307 306 306 306 306 306 306 306 305 305
323 322 322 321 321 320 320 319 316 314 313 313 313 312 311 310 310 309 309 309 308 307 306 306 306 306 306 305 305 306 306 306 307 306 305 306 306 306 306 306 306 305
323 322 322 321 320 320 320 318 315 314 313 313 312 311 310 310 310 309 309 308 307 307 307 307 307 307 306 306 305 305 305 306 306 306 305 306 306 306 306 306 305 305
323 322 322 321 320 320 319 317 314 313 313 312 311 310 310 309 309 308 308 308 308 308 308 307 307 307 307 307 306 306 305 305 306 306 305 306 306 306 306 305 305 305
323 322 321 321 320 319 318 316 314 312 312 311 310 310 309 309 308 307 307 306 307 308 308 307 307 308 308 307 307 306 305 305 305 306 305 305 305 304 304 304 304 304
Wind_Speed
29 32 32 31 31 31 30 29 28 26 25 23 20 20 19 16 14 15 15 14 13 14 15 14 14 15 15 15 15 16 16 16 17 16 17 17 17 16 15 15 14 15
30 32 32 31 30 29 28 28 29 27 24 22 20 18 17 15 15 16 16 15 14 14 15 15 15 15 16 15 15 16 16 16 17 16 16 17 17 16 15 14 14 14
31 33 32 31 30 29 28 28 29 27 24 21 20 18 17 16 17 18 17 16 14 15 16 16 16 15 15 15 15 16 17 17 17 16 16 17 16 16 15 15 14 13
32 33 32 31 30 30 29 29 29 26 24 22 20 18 19 20 19 18 16 14 14 15 16 16 15 15 15 16 17 18 18 17 17 17 17 18 16 16 15 14 14 15
33 32 32 31 31 31 30 30 29 27 25 23 21 20 22 23 20 17 16 14 15 17 17 16 16 16 17 17 18 18 18 17 17 16 17 17 15 15 15 14 16 16
33 32 32 31 31 31 31 30 29 27 26 24 22 22 23 22 19 18 17 17 18 18 18 17 17 17 18 18 17 18 17 17 16 15 16 16 16 15 15 14 15 15
33 32 32 31 32 32 31 30 29 27 26 26 24 21 22 21 19 18 18 18 19 19 19 19 18 18 18 17 18 18 16 15 15 15 16 17 16 14 13 12 13 14
34 33 32 32 33 33 31 30 29 28 28 27 24 22 22 21 20 19 18 19 20 19 19 19 18 18 18 18 18 18 17 15 15 15 17 17 15 14 12 11 12 12
34 33 33 34 34 33 31 30 30 29 29 27 24 24 22 20 20 21 19 19 20 20 20 20 19 18 18 18 18 18 18 16 14 15 17 17 16 15 13 12 11 12
35 33 34 35 35 33 32 31 31 31 30 27 24 24 22 21 21 21 20 20 21 21 20 20 20 19 18 18 18 19 18 16 15 16 16 15 15 14 13 11 11 12
35 35 34 36 35 34 33 32 32 32 30 27 24 23 23 23 23 22 21 22 22 21 21 21 21 20 19 19 19 18 17 16 16 15 14 14 13 13 12 11 11 11
36 35 35 36 35 34 34 34 33 32 30 28 26 25 25 25 25 23 22 23 23 22 22 22 21 21 20 19 19 18 16 16 15 15 15 14 13 13 12 11 10 10
37 36 35 35 35 36 35 34 32 32 31 30 28 27 27 27 26 24 24 24 23 23 23 22 22 21 20 20 20 18 17 16 16 16 16 15 14 13 12 11 10 10
36 36 36 35 35 36 35 33 33 32 31 30 28 27 28 28 26 26 25 24 23 23 23 22 22 22 21 21 21 19 18 18 17 17 17 16 14 13 12 11 10 9
35 36 36 35 35 36 35 34 33 32 31 29 28 28 28 27 26 27 26 25 25 24 23 22 23 23 22 23 22 20 19 19 17 17 16 16 15 14 12 11 10 9
35 35 36 35 36 35 35 34 33 32 31 30 28 29 28 27 27 27 27 27 26 26 25 25 24 24 24 23 21 20 20 19 18 17 17 16 16 15 13 12 11 9
35 36 36 35 35 35 35 34 33 32 31 30 29 29 29 29 29 28 28 28 28 28 28 27 27 26 24 20 19 20 20 19 18 17 17 16 15 15 14 13 11 9
36 36 36 35 35 35 35 34 33 32 31 30 30 30 30 29 29 30 29 29 30 30 29 28 28 26 21 18 20 21 19 18 18 17 17 16 15 14 14 13 12 9
37 37 35 35 35 35 35 34 33 32 32 31 31 31 31 30 30 31 29 29 31 31 29 29 26 21 18 19 21 21 18 18 18 17 16 16 15 14 13 13 13 11
37 36 35 34 34 34 34 34 33 32 32 32 32 32 32 30 31 31 30 29 31 31 29 27 22 19 19 21 20 20 19 19 17 16 15 15 14 14 13 14 14 13
36 35 35 35 34 34 34 34 33 32 32 32 33 33 32 31 31 31 30 29 30 30 27 24 20 20 22 22 21 20 20 19 17 17 16 14 14 14 14 15 17 15
36 35 35 35 35 34 33 33 33 32 32 33 33 32 31 31 30 30 30 29 29 28 26 22 21 23 23 22 22 21 22 20 16 16 18 16 14 14 13 14 16 14
36 36 35 35 35 35 33 32 31 32 33 33 33 31 30 30 30 29 28 28 28 26 25 23 23 24 24 23 23 21 23 22 16 16 18 17 14 14 14 15 15 14
37 38 37 36 35 35 34 32 31 33 34 35 35 34 32 31 31 29 28 28 26 25 24 24 24 24 23 24 23 22 23 23 19 15 15 14 13 14 15 14 13 14
37 38 38 38 36 35 33 32 32 34 35 35 35 34 31 30 30 29 29 28 26 24 24 24 24 24 23 24 24 23 24 25 22 17 14 12 12 13 13 13 14 15
36 38 38 38 37 34 33 33 33 33 34 33 32 32 31 30 29 29 29 28 26 25 24 24 24 24 25 25 23 24 26 28 27 22 17 13 13 13 14 14 15 17
Wind_Direction
187 182 180 180 180 180 180 181 181 179 174 172 169 169 172 168 162 165 168 167 165 161 160 158 156 156 154 153 152 148 146 142 139 139 138 133 129 127 123 120 120 116
186 182 181 180 181 182 182 182 181 179 175 173 171 167 167 168 170 175 172 166 164 163 163 159 156 156 154 152 151 146 143 139 136 140 138 131 128 124 119 118 118 117
184 181 181 181 182 181 181 181 181 179 175 172 170 169 168 168 169 172 170 164 161 161 163 161 157 157 154 151 149 143 140 137 136 139 137 131 128 122 118 119 117 114
182 182 183 183 183 181 179 179 179 178 175 171 170 171 171 169 166 165 164 162 160 158 160 160 159 158 153 150 149 144 140 137 136 139 135 130 130 127 124 123 117 109
182 181 181 182 181 180 178 178 177 176 174 171 170 172 172 171 170 168 164 160 158 158 159 159 158 155 153 153 152 147 143 140 140 142 137 132 132 129 123 119 114 106
182 180 180 181 180 178 177 177 177 176 174 171 169 170 172 173 173 170 166 161 160 160 160 159 156 155 156 157 153 148 146 145 145 145 140 134 131 125 121 121 118 112
180 180 179 179 178 177 177 177 177 175 172 170 170 170 173 174 173 170 168 165 164 164 164 161 158 159 160 158 152 148 146 145 146 147 140 132 128 126 127 132 130 124
179 178 178 177 175 175 175 176 175 173 171 171 171 172 174 175 174 172 170 168 167 168 166 163 162 162 160 158 154 148 145 146 148 147 139 133 132 133 134 136 139 136
179 177 176 176 175 173 173 174 174 172 172 171 169 170 174 175 174 173 171 171 171 170 168 166 165 161 158 159 157 150 148 150 150 146 142 141 140 138 138 138 136 135
179 177 175 174 174 173 173 174 175 176 177 174 170 171 174 175 174 173 172 172 173 172 171 170 166 161 161 164 160 153 152 153 151 147 147 149 149 145 143 141 137 133
178 177 175 174 173 172 172 175 177 179 180 177 173 175 177 177 175 174 174 175 175 175 174 173 169 165 167 168 161 155 156 157 153 150 150 151 151 150 147 144 141 137
178 177 175 173 172 171 172 174 177 180 179 175 173 174 177 176 175 175 177 178 178 177 176 175 171 170 170 166 160 158 159 157 153 152 155 153 150 150 150 149 147 146
178 177 174 172 171 171 172 174 176 177 177 176 175 175 176 175 174 176 179 181 180 179 179 177 173 171 171 165 161 162 161 157 157 159 159 156 153 153 153 155 158 160
177 176 173 170 170 171 173 175 175 175 177 176 176 176 177 176 175 177 180 182 181 180 181 179 174 174 172 166 164 165 163 162 164 165 161 158 159 162 159 161 170 175
174 173 172 170 169 171 172 174 174 175 176 174 174 177 177 177 177 179 180 181 182 182 182 179 177 177 173 169 169 169 168 170 170 167 164 163 165 165 164 169 176 180
169 169 170 171 172 172 172 173 174 175 175 172 173 177 178 178 180 181 181 182 183 183 182 180 179 178 175 175 175 174 173 174 173 169 166 167 167 165 166 175 181 183
166 167 170 172 173 173 174 175 174 174 173 172 174 177 179 180 182 182 183 185 185 183 182 180 180 179 179 179 177 175 176 177 174 172 170 171 174 172 172 181 188 192
166 168 171 173 173 174 176 176 174 173 173 173 174 177 179 182 184 184 184 186 185 184 182 180 181 183 182 180 179 178 178 179 178 178 176 177 181 179 178 188 196 198
168 170 172 173 174 175 176 175 174 173 174 174 175 177 180 183 185 184 186 187 185 183 180 180 183 187 184 182 183 181 179 180 183 184 182 183 188 189 189 194 200 201
169 171 173 174 176 176 175 175 174 173 174 175 175 178 181 184 184 185 186 186 184 182 180 182 185 186 185 186 185 182 181 183 185 187 187 189 193 197 199 201 203 205
171 172 173 174 176 177 176 175 175 174 174 175 177 180 183 184 184 185 185 182 182 182 182 183 184 184 187 188 186 184 185 182 183 189 192 194 197 204 213 212 208 206
172 172 172 174 177 177 176 176 175 174 173 175 178 180 183 184 183 184 184 181 181 184 185 185 187 188 190 190 188 188 187 184 185 190 191 195 201 206 210 203 198 199
172 172 173 175 177 178 177 177 175 174 174 177 179 179 181 184 184 184 185 183 183 187 189 188 189 193 194 193 193 192 188 188 190 186 188 198 203 200 195 188 190 199
174 174 174 176 177 178 178 177 174 173 177 181 183 180 181 183 185 186 187 185 185 187 190 191 192 194 195 196 199 199 195 194 193 182 183 197 200 196 199 200 205 212
175 177 176 177 179 180 179 176 174 174 178 183 184 181 181 183 186 188 187 185 186 188 191 194 193 193 195 197 201 205 203 200 197 186 181 194 199 200 208 214 215 217
177 179 179 178 179 179 177 176 175 175 176 179 180 179 180 184 188 189 188 189 191 191 193 195 194 194 196 197 202 209 207 203 201 194 187 196 206 210 212 212 212 216